Location: Newark
(40.7066°N, 111.8219°W)
Time: 03:09:15
(UTC+00:00)

Vanguard 1 Rocket - All Passes

Search period start: 13 November 2019 00:00
Search period end: 23 November 2019 00:00
Orbit: 651 x 4225 km, 34.3° (Epoch: 11 November)

Date Brightness Start Highest point End Pass type
(mag) Time Alt. Az. Time Alt. Az. Time Alt. Az.
13 Nov - 10:56:26 10° S 10:59:08 16° SSE 11:02:08 10° ESE visible
13 Nov - 13:18:19 10° WSW 13:23:04 46° S 13:30:42 10° E visible
13 Nov - 15:41:50 10° W 15:48:19 48° S 16:00:25 10° ESE daylight
13 Nov - 18:06:47 10° W 18:15:11 29° SSW 18:29:01 10° SSE daylight
14 Nov - 12:08:18 10° SW 12:12:24 34° SSE 12:17:56 10° E visible
14 Nov - 14:31:31 10° WSW 14:36:59 50° S 14:46:37 10° ESE daylight
14 Nov - 16:55:39 10° W 17:02:58 35° SSW 17:15:53 10° SE daylight
14 Nov - 19:23:45 10° WSW 19:30:40 16° SSW 19:39:50 10° S daylight
15 Nov - 10:58:33 10° SSW 11:01:53 21° SSE 11:05:36 10° ESE visible
15 Nov - 13:21:18 10° WSW 13:26:00 47° S 13:33:23 10° ESE visible
15 Nov - 15:45:01 10° W 15:51:15 41° SSW 16:02:23 10° SE daylight
15 Nov - 18:10:44 10° WSW 18:18:05 22° SSW 18:29:11 10° SSE daylight
16 Nov - 09:49:44 10° S 09:51:19 12° SSE 09:52:52 10° SE visible
16 Nov - 12:11:08 10° SW 12:15:17 38° SSE 12:20:50 10° E visible
16 Nov - 14:34:39 10° WSW 14:39:56 45° S 14:49:00 10° ESE daylight
16 Nov - 16:59:11 10° WSW 17:05:55 28° SSW 17:16:58 10° SSE daylight
17 Nov - 11:01:00 10° SW 11:04:42 26° SSE 11:08:49 10° ESE visible
17 Nov - 13:24:22 10° WSW 13:28:57 45° S 13:36:03 10° ESE visible
17 Nov - 15:48:20 10° WSW 15:54:12 33° SSW 16:04:08 10° SE daylight
17 Nov - 18:15:29 10° WSW 18:21:02 15° SSW 18:28:23 10° S daylight
18 Nov - 09:51:06 10° SSW 09:54:08 17° SSE 09:57:01 10° ESE visible
18 Nov - 12:14:03 10° WSW 12:18:12 41° S 12:23:41 10° ESE visible
18 Nov - 14:37:50 10° WSW 14:42:54 38° S 14:51:15 10° SE daylight
18 Nov - 17:03:05 10° WSW 17:08:54 20° SSW 17:17:33 10° SSE daylight
19 Nov - 08:42:41 10° SSE 08:43:20 10° SSE 08:43:59 10° SSE night (unlit)
19 Nov - 11:03:39 10° SW 11:07:36 32° SSE 11:11:54 10° ESE visible
19 Nov - 13:27:27 10° WSW 13:31:56 41° S 13:38:38 10° ESE visible
19 Nov - 15:51:50 10° WSW 15:57:12 26° SSW 16:05:36 10° SSE daylight
20 Nov - 09:53:13 10° SW 09:57:01 23° SSE 10:00:30 10° ESE visible
20 Nov - 12:17:02 10° WSW 12:21:11 41° S 12:26:30 10° ESE visible
20 Nov - 14:41:08 10° WSW 14:45:53 31° SSW 14:53:18 10° SE daylight
20 Nov - 17:07:49 10° SW 17:11:55 14° SSW 17:17:10 10° S daylight
21 Nov - 08:42:56 10° SSW 08:46:15 16° SSE 08:49:04 10° ESE night (unlit)
21 Nov - 11:06:27 10° WSW 11:10:33 36° S 11:14:55 10° ESE visible
21 Nov - 13:30:37 10° WSW 13:34:55 35° S 13:41:07 10° SE visible
21 Nov - 15:55:43 10° WSW 16:00:13 19° SSW 16:06:34 10° SSE daylight
22 Nov - 07:33:44 10° S 07:35:14 11° SSE 07:36:36 10° SE night (unlit)
22 Nov - 09:55:38 10° SW 09:59:56 29° SSE 10:03:46 10° ESE visible
22 Nov - 12:20:04 10° WSW 12:24:10 38° S 12:29:16 10° ESE visible
22 Nov - 14:44:36 10° WSW 14:48:54 23° SSW 14:55:05 10° SSE daylight
